Preview of NWS' New Version of Forecast
This preview is not operational and should not be used for support decisions.

Regional Weather Roundup (RWR)

Issued by National Weather Service (NWS)

                            
000
ASUS43 KLSX 231607
RWRMO 

WEATHER SUMMARY FOR MISSOURI
NATIONAL WEATHER SERVICE SPRINGFIELD MO
1100 AM CDT THU MAY 23 2019

NOTE: "FAIR" INDICATES FEW OR NO CLOUDS BELOW 12,000 FEET WITH NO
       SIGNIFICANT WEATHER AND/OR OBSTRUCTIONS TO VISIBILITY.
       CURRENT SKY AND/OR WEATHER CONDITIONS ARE NOT AVAILABLE FOR
       CHILLICOTHE AND FARMINGTON.

MOZ001>031-035>038-043-044-053-054-231700-
...NORTHERN AND WESTERN MISSOURI...
  
CITY           SKY/WX    TMP DP  RH WIND       PRES   REMARKS
KANSAS CTY INT PTSUNNY   69  49  48 NE8       30.13R                  
KANSAS C DTWN  CLOUDY    69  50  50 E5        30.11R                  
LEE'S SUMMIT   CLOUDY    66  54  65 E8        30.12R                  
ST JOSEPH      FAIR      68  47  46 MISG      30.12F                  
CHILLICOTHE      N/A     69  50  50 VRB5      30.12F                  
KIRKSVILLE     FAIR      67  51  56 NW8       30.12S                  
     
$$
MOZ066>068-077>081-088>096-101>105-231700-
...SOUTHWEST MISSOURI...
  
CITY           SKY/WX    TMP DP  RH WIND       PRES   REMARKS
SPRINGFIELD    CLOUDY    68  64  87 CALM      30.12S                  
JOPLIN         CLOUDY    70  68  93 NE7       30.08S                  
BRANSON        CLOUDY    79  68  69 S8        30.14R                  
               
$$
MOZ032>034-039>042-045>050-055>058-069>072-231700-
...CENTRAL MISSOURI...  
  
CITY           SKY/WX    TMP DP  RH WIND       PRES   REMARKS
COLUMBIA       FAIR      67  61  81 N6        30.10R                  
ROLLA          TSTM      68  63  84 SE20G26   30.12S                  
SEDALIA        CLOUDY    63  62  97 N6        30.12R                  
WHITEMAN AFB   CLOUDY    67  60  78 NE8       30.07R                  
WARRENSBURG    CLOUDY    64  55  72 NE3       30.12R                  
OSAGE BEACH    LGT RAIN  66  66 100 SW5       30.11S                  
               
$$
MOZ051-052-059>065-231700-
...EAST CENTRAL MISSOURI...
  
CITY           SKY/WX    TMP DP  RH WIND       PRES   REMARKS
ST LOUIS INTL  CLOUDY    73  68  84 N3        30.08F                  
SPIRIT OF STL  CLOUDY    72  67  84 NE8       30.05F HAZE             
ST CHARLES     FAIR      72  65  78 NE7       30.07S                  
                   
$$
MOZ072>076-082>087-097>100-106>115-231700-
...SOUTH CENTRAL AND SOUTHEAST MISSOURI...
  
CITY           SKY/WX    TMP DP  RH WIND       PRES   REMARKS
CAPE GIRARDEAU FAIR      82  71  69 SW14      30.12R                  
FARMINGTON     FAIR      79  73  82 SW9       30.13R                  
POPLAR BLUFF   FAIR      81  74  79 S14G22    30.13R                  
WEST PLAINS    PTSUNNY   80  71  74 SW12G20   30.16R                  
                                       
$$